Zurück zum Katalog

STARLINK-30485

AktivKommunikationVLEO
NORAD 57920·PAYLOAD·🇺🇸 United States

Gestartet Sep 24, 2023 von Cape Canaveral Space Force Station

Loading…

Nächste Überflüge (nächste 24 Stunden)

TLE

AktuellSource: CelesTrak SupGP

Epoche: Sep 14, 2026, 22:11 UTC

1 57920C 23147H   26257.92479167 -.00103490  00000+0 -37477-2 0  2572
2 57920  43.0024 336.5666 0001797 265.5485 266.4163 15.27636293    15

Verfolge STARLINK-30485 in Echtzeit mit AllMySat

Download on the App Store